Regional Weather Roundup
Issued by NWS

Home | Current Version | Previous Version | Graphics & Text | Print | Product List | Glossary Off
Versions: 1 2 3 4 5 6 7 8 9 10 11 12 13 14 15 16 17 18 19 20 21 22 23 24 25 26 27 28 29 30 31 32 33 34 35 36 37 38 39 40 41 42 43 44 45 46 47 48 49 50

476
ASUS43 KMPX 201510
RWRMN
WEATHER ROUNDUP FOR MINNESOTA
NATIONAL WEATHER SERVICE TWIN CITIES/CHANHASSEN MN
900 AM CST MON NOV 20 2017


NOTE: "FAIR" INDICATES FEW OR NO CLOUDS BELOW 12,000 FEET WITH NO
SIGNIFICANT WEATHER AND/OR OBSTRUCTIONS TO VISIBILITY. N/A MEANS
CURRENT SKY AND/OR WEATHER CONDITIONS ARE NOT AVAILABLE.

MNZ060>063-068>070-201600-
   Twin Cities Metro

CITY           SKY/WX    TMP DP  RH WIND       PRES   REMARKS
TWIN CITIES    CLOUDY    34  28  79 SE8       29.61F WCI  27
ST PAUL        CLOUDY    32  29  88 SE8       29.64F WCI  25
CRYSTAL        MOSUNNY   33  25  72 S9        29.59F WCI  25
BLAINE         PTSUNNY   36  28  75 S8        29.59F
LAKEVILLE      CLOUDY    34  27  75 S7        29.61F WCI  28
EDEN PRAIRIE   CLOUDY    34  28  79 S8        29.60F WCI  27
SOUTH ST PAUL  CLOUDY    32  28  84 SE3       29.62F
LAKE ELMO      FAIR      32  30  93 SE6       29.63F WCI  26
$$
MNZ001>005-007-008-013>017-022>024-027-028-201600-
   Northwest Minnesota

CITY           SKY/WX    TMP DP  RH WIND       PRES   REMARKS
BEMIDJI        CLOUDY    27  25  90 SE5       29.44F WCI  22
HALLOCK        CLOUDY    30  27  86 S16       29.33F WCI  19
ROSEAU         CLOUDY    36  28  75 S18       29.34F
WARROAD        CLOUDY    32  27  80 S7        29.36F WCI  26
THIEF RVR FALL CLOUDY    33  26  75 S15       29.38F WCI  23
CROOKSTON      CLOUDY    32  27  80 S14       29.39F WCI  22
FOSSTON        CLOUDY    34  23  64 S10       29.40F WCI  26
DETROIT LAKES  CLOUDY    34  28  80 S9        29.45F WCI  26
MOORHEAD       CLOUDY    30  25  80 S12       29.44F WCI  21
PARK RAPIDS    CLOUDY    29  24  82 S10       29.45F WCI  20
MAHNOMEN       FAIR      38  26  61 S17       29.41F
$$
MNZ006-009>011-018-025>026-201600-
   North Central Minnesota

CITY           SKY/WX    TMP DP  RH WIND       PRES   REMARKS
BAUDETTE       CLOUDY    26  22  84 SE7       29.39F WCI  18
FLAG ISLAND    CLOUDY    27  21  80 S21       29.35F WCI  13
INTL FALLS     CLOUDY    23  19  85 SE8       29.46F FOG     WCI  14
WASKISH        CLOUDY    34  25  69 S8        29.42F WCI  27
BIG FORK       CLOUDY    28  25  86 S6        29.48F WCI  22
LONGVILLE      CLOUDY    25  25 100 CALM      29.48F
GRAND RAPIDS   CLOUDY    25  21  85 SE9       29.51F WCI  15
CRANE LAKE     CLOUDY    23  21  93 CALM      29.53S
ORR            CLOUDY    25  19  80 SE6       29.47F WCI  18
COOK           CLOUDY    27  23  86 SE6       29.51F WCI  20
WALKER         FAIR      31  24  74 SE6       29.46F WCI  25
$$
MNZ012-019>021-037-201600-
   Northeast Minnesota

CITY           SKY/WX    TMP DP  RH WIND       PRES   REMARKS
DULUTH         CLOUDY    25  25 100 SE7       29.56F WCI  17
ELY            CLOUDY    27  25  93 S7        29.53F WCI  19
HIBBING        CLOUDY    22  20  92 SE3       29.53F
EVELETH        CLOUDY    23  19  86 CALM      29.55F
DULUTH HARBOR  CLOUDY    27  21  80 CALM      29.61F
TWO HARBORS    CLOUDY    28  25  86 N3        29.57F
SILVER BAY     CLOUDY    25  21  86 CALM      29.58F
GRAND MARAIS     N/A     31  26  82 VRB5      29.64F WCI  26
G MARAIS ARPRT CLOUDY    25  19  80 SE5       29.58F WCI  19
$$
MNZ029>031-032-039>041-046>048-054>057-064-201600-
   West Central Minnesota

CITY           SKY/WX    TMP DP  RH WIND       PRES   REMARKS
FERGUS FALLS   CLOUDY    34  27  75 S12       29.49F WCI  25
WHEATON        CLOUDY    34  25  69 S10       29.49F WCI  26
MORRIS         CLOUDY    30  25  80 SE12      29.49F WCI  21
ALEXANDRIA     CLOUDY    34  26  72 S12       29.50F WCI  25
ELBOW LAKE     FAIR      32  26  79 SE12      29.48F WCI  23
WADENA         CLOUDY    34  27  75 S9        29.46F WCI  26
GLENWOOD       CLOUDY    28  27  93 SE7       29.50F WCI  21
APPLETON       CLOUDY    32  25  74 S5        29.51F WCI  27
BENSON         CLOUDY    30  25  80 S6        29.53F WCI  24
ORTONVILLE     PTSUNNY   32  25  74 MISG      29.48F
MADISON        CLOUDY    34  28  80 S7        29.51F WCI  28
WILLMAR        FAIR      30  28  93 SE7       29.55F WCI  23
$$
MNZ033>034-036-042>043-049>051-058-059-201600-
   Central Minnesota

CITY           SKY/WX    TMP DP  RH WIND       PRES   REMARKS
ST CLOUD       CLOUDY    30  27  88 SE5       29.56F WCI  25
SAUK CENTRE    FAIR      29  25  87 SE8       29.52F WCI  21
PAYNESVILLE    CLOUDY    31  27  86 S8        29.55F WCI  23
AITKIN         CLOUDY    28  27  93 CALM      29.50F
PINE RIVER     CLOUDY    27  23  86 SE6       29.53F WCI  20
BRAINERD       CLOUDY    31  25  78 SE5       29.51F WCI  26
STAPLES        CLOUDY    28  25  86 S7        29.48F WCI  21
LONG PRAIRIE   FAIR      28  27  93 SE10      29.53F WCI  19
LITTLE FALLS   CLOUDY    28  23  80 SE3       29.54F
LITCHFIELD     CLOUDY    32  28  86 S3        29.56F
BUFFALO        CLOUDY    32  27  80 S3        29.59F
MAPLE LAKE     CLOUDY    32  29  88 SE6       29.57F WCI  26
HUTCHINSON     CLOUDY    31  28  88 SE7       29.58F WCI  24
$$
MNZ037-044-045-052-053-201600-
   East Central Minnesota

CITY           SKY/WX    TMP DP  RH WIND       PRES   REMARKS
PRINCETON      CLOUDY    32  30  93 SE5       29.57F WCI  27
MORA           CLOUDY    28  27  93 S5        29.59F WCI  23
CAMBRIDGE      CLOUDY    34  28  80 SE8       29.58F WCI  27
RUSH CITY      CLOUDY    30  27  88 S8        29.59F WCI  23
MOOSE LAKE     CLOUDY    23  21  93 CALM      29.55F
HINCKLEY       FAIR      28  28 100 CALM      29.59F
CLOQUET        CLOUDY    23  19  86 E3        29.56F
MCGREGOR       CLOUDY    30  27  86 SE6       29.53F WCI  24
$$
MNZ071>073-080-081-089-090-097-098-201600-
   Southwest Minnesota

CITY           SKY/WX    TMP DP  RH WIND       PRES   REMARKS
MONTEVIDEO     CLOUDY    32  25  74 S6        29.52F WCI  26
GRANITE FALLS  CLOUDY    32  27  81 SE6       29.56S WCI  26
CANBY          CLOUDY    40  27  59 SW10      29.54F
MARSHALL       CLOUDY    39  25  57 SW15      29.53F
REDWOOD FALLS  CLOUDY    31  24  75 CALM      29.57F
OLIVIA         CLOUDY    32  28  86 SE9       29.55F WCI  24
PIPESTONE      CLOUDY    30  25  80 SW7       29.56F WCI  23
WINDOM         CLOUDY    36  19  51 S16       29.57F
WORTHINGTON    CLOUDY    34  25  69 SW15      29.59F WCI  24
JACKSON        CLOUDY    36  27  69 S13       29.59F
SLAYTON        CLOUDY    33  26  77 SW8       29.58S WCI  26
$$
MNZ065>067-074>077-082>085-091>093-201600-
   South Central Minnesota

CITY           SKY/WX    TMP DP  RH WIND       PRES   REMARKS
MANKATO        CLOUDY    34  27  75 S10       29.60F WCI  26
NEW ULM        CLOUDY    30  25  80 CALM      29.58F
ST JAMES       CLOUDY    34  27  75 S14       29.60F WCI  24
FAIRMONT       CLOUDY    34  27  75 S14       29.61F WCI  25
GLENCOE        CLOUDY    33  28  83 S5        29.59F WCI  29
FARIBAULT      CLOUDY    34  27  75 S8        29.63F WCI  27
OWATONNA       CLOUDY    36  27  69 S14       29.63F
WASECA         CLOUDY    36  30  80 S10       29.63F
ALBERT LEA     CLOUDY    37  25  60 S8        29.64F
$$
MNZ078>079-086>088-094>096-201600-
   Southeast Minnesota

CITY           SKY/WX    TMP DP  RH WIND       PRES   REMARKS
ROCHESTER      CLOUDY    35  28  75 S14       29.66F WCI  26
RED WING       CLOUDY    36  27  69 SE6       29.65F
STANTON        CLOUDY    35  28  73 S8        29.62F WCI  29
DODGE CENTER   CLOUDY    34  27  75 S13       29.64F WCI  25
WINONA         CLOUDY    36  30  80 SE6       29.72F
AUSTIN         CLOUDY    32  27  80 S10       29.67F WCI  24
PRESTON        CLOUDY    34  27  75 S14       29.69F WCI  25
$$
ABBREVIATIONS USED IN REMARKS
   TC - TEMPERATURES IN CELSIUS
  WCI - WIND CHILL INDEX
   HX - HEAT INDEX
  VSB - VISIBILITY
$$




USA.gov is the U.S. government's official web portal to all federal, state and local government web resources and services.